Weather History for KBUR - February, 2013

Change the Weather History Date:

Thursday, February 28, 2013

  Actual Average Record
Temperature  
Mean Temperature 64 °F 57 °F  
Max Temperature 80 °F 69 °F 87 °F (1967)
Min Temperature 47 °F 45 °F 32 °F (1951)
Degree Days  
Heating Degree Days 1 8  
Month to date heating degree days 232 258  
Since 1 July heating degree days 1011 1141  
Cooling Degree Days 0 0  
Month to date cooling degree days 2 4  
Year to date cooling degree days 2 6  
Growing Degree Days 14 (Base 50)    
Moisture  
Dew Point 17 °F    
Average Humidity 19    
Maximum Humidity 31    
Minimum Humidity 7    
Precipitation  
Precipitation 0.00 in 0.14 in 3.00 in (2014)
Month to date precipitation 0.16 4.48  
Year to date precipitation 0.93 8.01  
Since 1 July precipitation 3.73  
Sea Level Pressure  
Sea Level Pressure 30.25 in    
Wind  
Wind Speed 3 mph (WSW)    
Max Wind Speed 13 mph    
Max Gust Speed 15 mph    
Visibility 10 miles    
Events      
T = Trace of Precipitation, MM = Missing Value Source: NWS Daily Summary

Daily Weather History Graph

Daily Weather History Graph

Search for Another Location

Airport or City:

Trip Planner

Search our weather history database for the weather conditions in past years. The results will help you decide how hot, cold, wet, or windy it might be!

Date:

Astronomy

Feb. 28, 2013 Rise Set
Actual Time 6:23 AM PST 5:49 PM PST
Civil Twilight 5:57 AM PST 6:14 PM PST
Nautical Twilight 5:28 AM PST 6:43 PM PST
Astronomical Twilight 4:59 AM PST 7:12 PM PST
Moon 9:09 PM PST (2/28) 7:46 AM PST (2/28)
Length of Visible Light 12h 16m
Length of Day
11h 26m
Waning Gibbous, 90% of the Moon is Illuminated
Feb 28
Waning Gibbous
Mar 4
Last Quarter
Mar 11
New
Mar 19
First Quarter
Mar 27
Full

Hourly Weather History & Observations

Time (PST) Temp. Dew Point Humidity Pressure Visibility Wind Dir Wind Speed Gust Speed Precip Events Conditions
12:53 AM 52.0 °F 17.1 °F 25% 30.25 in 10.0 mi Calm Calm - N/A   Clear
1:53 AM 52.0 °F 16.0 °F 24% 30.24 in 10.0 mi West 3.5 mph - N/A   Clear
2:53 AM 51.1 °F 16.0 °F 25% 30.22 in 10.0 mi Calm Calm - N/A   Clear
3:53 AM 48.0 °F 19.0 °F 32% 30.23 in 10.0 mi NNW 3.5 mph - N/A   Clear
4:53 AM 48.0 °F 19.0 °F 32% 30.25 in 10.0 mi North 3.5 mph - N/A   Clear
5:53 AM 48.0 °F 19.0 °F 32% 30.26 in 10.0 mi Calm Calm - N/A   Clear
6:53 AM 50.0 °F 17.1 °F 27% 30.27 in 10.0 mi West 5.8 mph - N/A   Clear
7:53 AM 55.9 °F 19.0 °F 24% 30.28 in 10.0 mi Calm Calm - N/A   Clear
8:53 AM 64.0 °F 16.0 °F 16% 30.29 in 10.0 mi Calm Calm - N/A   Clear
9:53 AM 69.1 °F 10.9 °F 11% 30.29 in 10.0 mi Calm Calm - N/A   Clear
10:53 AM 73.0 °F 8.1 °F 8% 30.29 in 10.0 mi Calm Calm - N/A   Clear
11:53 AM 75.9 °F 10.0 °F 8% 30.26 in 10.0 mi Variable 3.5 mph - N/A   Clear
12:53 PM 78.1 °F 9.0 °F 7% 30.24 in 10.0 mi Calm Calm - N/A   Clear
1:53 PM 80.1 °F 14.0 °F 8% 30.22 in 10.0 mi SSE 4.6 mph - N/A   Clear
2:53 PM 80.1 °F 15.1 °F 9% 30.22 in 10.0 mi South 9.2 mph - N/A   Clear
3:53 PM 79.0 °F 15.1 °F 9% 30.22 in 10.0 mi South 9.2 mph - N/A   Clear
4:53 PM 75.9 °F 16.0 °F 10% 30.22 in 10.0 mi South 8.1 mph - N/A   Clear
5:53 PM 72.0 °F 21.0 °F 15% 30.24 in 10.0 mi South 3.5 mph - N/A   Clear
6:53 PM 69.1 °F 19.9 °F 15% 30.25 in 10.0 mi Calm Calm - N/A   Clear
7:53 PM 68.0 °F 19.0 °F 15% 30.26 in 10.0 mi West 8.1 mph - N/A   Clear
8:53 PM 66.0 °F 21.9 °F 19% 30.27 in 10.0 mi Calm Calm - N/A   Clear
9:53 PM 62.1 °F 21.9 °F 21% 30.28 in 10.0 mi WSW 4.6 mph - N/A   Clear
10:53 PM 62.1 °F 19.9 °F 20% 30.28 in 10.0 mi Calm Calm - N/A   Clear
11:53 PM 63.0 °F 17.1 °F 17% 30.28 in 10.0 mi NNW 3.5 mph - N/A   Clear